XW-2B

Last updated on Sat Nov 23 2024 00:03:02 GMT+0000 (Coordinated Universal Time)

1 40911U 15049N 24327.12055396 .12214391 26469-5 35889-3 0 9994 2 40911 97.4275 356.1976 0007819 246.3878 113.6603 16.44746485509295
UTC large
Height (km)
Speed (km/s)
/
Latitude / Longitude
Inclination (degrees)
Orbital Period (minutes)
Azimuth
Elevation
Range (km)
Doppler Factor

Next 0 passes for location: London (51.5072 / 0.1276)

Sorry there are no passes over London.